Location: Clermont
(50.2608°N, 4.3172°E)
Time: 08:24:36
(UTC+00:00)

Cosmos 2322 Rocket - Pass Details

Date: 13 August 2020
Orbit: 831 x 852 km, 71.0° (Epoch: 26 September)

Event Time Altitude Azimuth Distance (km) Brightness Sun altitude
Rises 20:40:21 0° 331° (NNW) 3,420 6.9 -13.5°
Reaches altitude 10° 20:42:50 10° 334° (NNW) 2,484 5.8 -13.8°
Maximum altitude 20:48:32 68° 58° (ENE) 915 2.3 -14.5°
Enters shadow 20:52:14 22° 137° (SE) 1,762 3.2 -14.9°
